FW9251 Weather Reports


time (UTC)temp
C
wind
direction
speed
KPH
gust
KPH
rain 1hr
cm
rain 24hr
cm
rain mn
cm
humidity
%
barometer
mb
20260503224126 31 276 4.8 4.8 0.00 0.00 0.00 35 1007.0
20260503223624 31 327 3.2 3.2 0.00 0.00 0.00 33 1007.3
20260503223120 31 319 6.4 8.0 0.00 0.00 0.00 33 1007.2
20260503222618 31 314 1.6 3.2 0.00 0.00 0.00 34 1007.3
20260503222115 31 230 3.2 4.8 0.00 0.00 0.00 32 1007.2
20260503221613 31 353 4.8 9.7 0.00 0.00 0.00 35 1007.4
20260503221110 31 292 6.4 9.7 0.00 0.00 0.00 35 1007.5
20260503220607 31 191 3.2 4.8 0.00 0.00 0.00 39 1007.7
20260503220104 31 319 0.0 3.2 0.00 0.00 0.00 39 1007.7
20260503215601 31 317 6.4 11.3 0.00 0.00 0.00 36 1007.9
20260503215057 30 305 4.8 9.7 0.00 0.00 0.00 39 1007.7
20260503214556 30 341 8.0 11.3 0.00 0.00 0.00 38 1007.7
20260503214052 30 353 4.8 8.0 0.00 0.00 0.00 39 1007.9
20260503213551 30 319 11.3 14.5 0.00 0.00 0.00 36 1007.8
20260503213047 30 331 9.7 12.9 0.00 0.00 0.00 37 1008.1
20260503212544 30 316 11.3 16.1 0.00 0.00 0.00 39 1007.9
20260503212042 30 324 3.2 3.2 0.00 0.00 0.00 37 1008.1
20260503211539 30 305 3.2 3.2 0.00 0.00 0.00 41 1008.2
20260503211034 30 318 9.7 14.5 0.00 0.00 0.00 39 1008.2
20260503210531 30 322 9.7 12.9 0.00 0.00 0.00 40 1008.3
20260503210027 29 323 6.4 9.7 0.00 0.00 0.00 41 1008.4
20260503205524 29 311 8.0 11.3 0.00 0.00 0.00 41 1008.5
20260503205020 30 319 9.7 12.9 0.00 0.00 0.00 41 1008.5
20260503204517 30 314 1.6 1.6 0.00 0.00 0.00 47 1008.4
20260503204014 29 328 8.0 11.3 0.00 0.00 0.00 43 1008.6
20260503203511 29 284 3.2 3.2 0.00 0.00 0.00 46 1008.8
20260503203008 29 321 6.4 11.3 0.00 0.00 0.00 45 1008.7
20260503202506 29 324 0.0 1.6 0.00 0.00 0.00 47 1008.7
20260503202004 28 253 4.8 4.8 0.00 0.00 0.00 48 1008.7
20260503201502 28 300 8.0 9.7 0.00 0.00 0.00 47 1008.9
20260503200959 28 37 6.4 11.3 0.00 0.00 0.00 48 1008.8
20260503200455 28 358 8.0 9.7 0.00 0.00 0.00 49 1009.1
20260503195952 28 292 6.4 9.7 0.00 0.00 0.00 48 1009.0
20260503195449 28 344 3.2 3.2 0.00 0.00 0.00 52 1008.9
20260503194945 28 344 8.0 9.7 0.00 0.00 0.00 50 1009.1
20260503194443 28 306 6.4 8.0 0.00 0.00 0.00 49 1009.3
20260503193938 27 325 9.7 12.9 0.00 0.00 0.00 50 1009.2
20260503193433 27 337 4.8 4.8 0.00 0.00 0.00 51 1009.3
20260503192929 27 323 6.4 9.7 0.00 0.00 0.00 50 1009.1
20260503192426 27 313 3.2 4.8 0.00 0.00 0.00 51 1009.4
20260503191921 27 331 6.4 8.0 0.00 0.00 0.00 53 1009.6
20260503191420 27 336 11.3 11.3 0.00 0.00 0.00 51 1009.5
20260503190915 27 341 6.4 8.0 0.00 0.00 0.00 54 1009.4
20260503190413 27 306 4.8 4.8 0.00 0.00 0.00 53 1009.6
20260503185909 26 340 8.0 9.7 0.00 0.00 0.00 53 1009.7
20260503185406 26 340 8.0 11.3 0.00 0.00 0.00 52 1009.7
20260503184905 26 295 6.4 8.0 0.00 0.00 0.00 54 1009.6
20260503184402 26 355 8.0 11.3 0.00 0.00 0.00 53 1009.6
20260503183858 26 330 9.7 14.5 0.00 0.00 0.00 51 1009.8
20260503183355 26 318 12.9 14.5 0.00 0.00 0.00 53 1009.7
20260503182853 25 345 8.0 9.7 0.00 0.00 0.00 52 1010.0
20260503182351 26 310 4.8 4.8 0.00 0.00 0.00 54 1009.9
20260503181848 25 324 8.0 9.7 0.00 0.00 0.00 55 1010.0
20260503181345 25 346 8.0 11.3 0.00 0.00 0.00 56 1010.2
20260503180842 25 286 8.0 9.7 0.00 0.00 0.00 55 1010.1
20260503180340 25 30 8.0 9.7 0.00 0.00 0.00 55 1010.1
20260503175836 25 351 4.8 9.7 0.00 0.00 0.00 56 1010.1
20260503175334 24 3 4.8 8.0 0.00 0.00 0.00 56 1010.1
20260503174829 24 326 6.4 8.0 0.00 0.00 0.00 55 1010.4
20260503174328 24 348 11.3 12.9 0.00 0.00 0.00 56 1010.4
20260503173823 23 344 6.4 8.0 0.00 0.00 0.00 58 1010.3
20260503173319 23 4 6.4 8.0 0.00 0.00 0.00 58 1010.4
20260503172816 22 345 6.4 8.0 0.00 0.00 0.00 60 1010.4
20260503172314 22 318 6.4 9.7 0.00 0.00 0.00 61 1010.5
20260503171810 22 344 6.4 8.0 0.00 0.00 0.00 60 1010.6
20260503171307 22 349 9.7 11.3 0.00 0.00 0.00 59 1010.5
20260503170804 22 300 8.0 8.0 0.00 0.00 0.00 61 1010.5
20260503170300 22 33 6.4 9.7 0.00 0.00 0.00 61 1010.5
20260503150653 17 15 4.8 8.0 0.00 0.00 0.00 77 1011.1
20260503150149 17 25 1.6 1.6 0.00 0.00 0.00 77 1011.0
20260503140113 16 206 0.0 0.0 0.00 0.00 0.00 84 1011.0
20260503131042 12 207 0.0 0.0 0.00 0.00 0.00 91 1010.8
20260503130539 13 207 0.0 0.0 0.00 0.00 0.00 91 1010.7
20260503110430 13 206 0.0 0.0 0.00 0.00 0.00 89 1011.1
20260503090321 15 205 0.0 1.6 0.00 0.00 0.00 87 1011.4
20260503081248 15 184 0.0 0.0 0.00 0.00 0.00 88 1011.4
20260503080744 15 276 0.0 0.0 0.00 0.00 0.00 89 1011.2
20260503080242 15 275 1.6 1.6 0.00 0.00 0.00 90 1011.2
20260503072718 16 204 0.0 0.0 0.00 0.00 0.00 85 1011.2
20260503072215 16 157 0.0 1.6 0.00 0.00 0.00 84 1011.2
20260503071712 16 203 1.6 3.2 0.00 0.00 0.00 84 1011.1
20260503071209 16 192 0.0 0.0 0.00 0.00 0.00 84 1010.9
20260503070705 17 336 6.4 9.7 0.00 0.00 0.00 84 1010.9
20260503070203 17 0 8.0 11.3 0.00 0.00 0.00 84 1011.2
20260503060127 16 206 0.0 0.0 0.00 0.00 0.00 87 1011.7
20260503055119 17 210 0.0 1.6 0.00 0.00 0.00 86 1012.1
20260503054615 17 207 0.0 0.0 0.00 0.00 0.00 86 1011.8
20260503054112 17 211 1.6 3.2 0.00 0.00 0.00 85 1011.7
20260503053610 17 210 0.0 1.6 0.00 0.00 0.00 85 1012.0
20260503053108 17 207 1.6 1.6 0.00 0.00 0.00 85 1011.8
20260503052604 17 210 0.0 0.0 0.00 0.00 0.00 85 1012.1
20260503052101 17 207 1.6 3.2 0.00 0.00 0.00 85 1011.8
20260503051556 17 204 1.6 1.6 0.00 0.00 0.00 84 1011.7
20260503051054 17 206 0.0 1.6 0.00 0.00 0.00 84 1011.8
20260503050549 17 204 0.0 1.6 0.00 0.00 0.00 84 1011.7
20260503050047 17 209 0.0 0.0 0.00 0.00 0.00 84 1011.7
20260503045544 18 299 1.6 1.6 0.00 0.00 0.00 83 1011.8
20260503045041 18 209 0.0 0.0 0.00 0.00 0.00 82 1011.9
20260503044538 18 200 0.0 0.0 0.00 0.00 0.00 82 1011.6
20260503044036 18 209 0.0 1.6 0.00 0.00 0.00 82 1011.8
20260503043532 18 211 1.6 3.2 0.00 0.00 0.00 81 1011.6
20260503043028 18 215 1.6 1.6 0.00 0.00 0.00 81 1011.6
20260503042526 18 207 0.0 0.0 0.00 0.00 0.00 81 1011.5
20260503042021 18 200 0.0 0.0 0.00 0.00 0.00 82 1011.3
20260503041518 18 198 0.0 0.0 0.00 0.00 0.00 81 1011.4
20260503041016 18 196 0.0 0.0 0.00 0.00 0.00 81 1011.1
20260503040514 18 203 0.0 0.0 0.00 0.00 0.00 79 1011.2
20260503040011 19 213 0.0 0.0 0.00 0.00 0.00 79 1010.9
20260503035507 19 210 0.0 1.6 0.00 0.00 0.00 78 1011.1
20260503035005 19 204 1.6 1.6 0.00 0.00 0.00 77 1010.7
20260503034502 20 163 0.0 0.0 0.00 0.00 0.00 77 1010.6
20260503033959 20 196 0.0 0.0 0.00 0.00 0.00 73 1010.5
20260503033456 20 223 0.0 0.0 0.00 0.00 0.00 72 1010.6
20260503032954 21 210 0.0 0.0 0.00 0.00 0.00 72 1010.5
20260503032452 21 226 3.2 3.2 0.00 0.00 0.00 71 1010.6
20260503031950 21 204 4.8 4.8 0.00 0.00 0.00 69 1010.4
20260503031447 22 216 4.8 4.8 0.00 0.00 0.00 66 1010.4
20260503030944 22 204 1.6 3.2 0.00 0.00 0.00 63 1010.3
20260503030440 23 198 1.6 3.2 0.00 0.00 0.00 59 1010.1
20260503025937 23 188 0.0 1.6 0.00 0.00 0.00 57 1010.1
20260503025434 23 187 3.2 4.8 0.00 0.00 0.00 57 1009.8
20260503024932 23 289 4.8 8.0 0.00 0.00 0.00 56 1009.6
20260503024428 23 343 1.6 3.2 0.00 0.00 0.00 58 1009.4
20260503023925 23 305 4.8 12.9 0.00 0.00 0.00 57 1009.3
20260503023422 23 303 6.4 9.7 0.00 0.00 0.00 56 1009.4
20260503022919 23 27 3.2 4.8 0.00 0.00 0.00 57 1009.1
20260503022414 23 298 6.4 8.0 0.00 0.00 0.00 57 1009.3
20260503021910 23 289 4.8 4.8 0.00 0.00 0.00 56 1009.2
20260503021406 23 101 1.6 4.8 0.00 0.00 0.00 56 1009.0
20260503020904 24 322 6.4 9.7 0.00 0.00 0.00 55 1009.3
20260503020402 24 334 8.0 11.3 0.00 0.00 0.00 55 1009.1
20260503015857 24 328 8.0 14.5 0.00 0.00 0.00 55 1009.1
20260503015355 24 326 8.0 9.7 0.00 0.00 0.00 55 1009.3
20260503014850 24 323 6.4 8.0 0.00 0.00 0.00 55 1009.4
20260503014348 24 252 4.8 4.8 0.00 0.00 0.00 56 1009.4
20260503013846 24 350 3.2 8.0 0.00 0.00 0.00 56 1009.2
20260503013342 24 321 4.8 8.0 0.00 0.00 0.00 56 1009.4
20260503012839 24 323 8.0 9.7 0.00 0.00 0.00 55 1009.2
20260503012337 24 281 8.0 16.1 0.00 0.00 0.00 55 1009.4
20260503011834 24 306 8.0 12.9 0.00 0.00 0.00 56 1009.4
20260503011331 24 244 3.2 3.2 0.00 0.00 0.00 56 1009.3
20260503010827 24 319 4.8 8.0 0.00 0.00 0.00 56 1009.2
20260503010325 24 321 12.9 22.5 0.00 0.00 0.00 55 1009.3
20260503005821 25 231 4.8 11.3 0.00 0.00 0.00 56 1009.5
20260503005319 25 292 1.6 3.2 0.00 0.00 0.00 57 1009.5
20260503004815 25 187 6.4 8.0 0.00 0.00 0.00 56 1009.4
20260503004313 25 216 3.2 4.8 0.00 0.00 0.00 58 1009.6
20260503003810 25 311 4.8 8.0 0.00 0.00 0.00 56 1009.5
20260503003307 24 228 6.4 9.7 0.00 0.00 0.00 57 1009.6
20260503002804 24 306 4.8 4.8 0.00 0.00 0.00 58 1009.4
20260503002300 24 302 4.8 4.8 0.00 0.00 0.00 57 1009.5
20260503001756 24 210 3.2 4.8 0.00 0.00 0.00 57 1009.5
20260503001253 24 309 3.2 9.7 0.00 0.00 0.00 58 1009.6
20260503000751 25 301 3.2 4.8 0.00 0.00 0.00 57 1009.5
20260503000248 25 184 1.6 3.2 0.00 0.00 0.00 58 1009.7
20260502235745 24 297 4.8 8.0 0.00 0.00 0.00 57 1009.4
20260502235243 24 316 6.4 8.0 0.00 0.00 0.00 57 1009.7
20260502234738 24 341 6.4 9.7 0.00 0.00 0.00 58 1009.7
20260502234236 25 325 9.7 17.7 0.00 0.00 0.00 58 1009.8
20260502233732 25 312 8.0 9.7 0.00 0.00 0.00 57 1009.9
20260502233229 25 322 8.0 11.3 0.00 0.00 0.00 57 1010.1
20260502232725 25 323 8.0 9.7 0.00 0.00 0.00 58 1009.9
20260502232222 25 15 11.3 16.1 0.00 0.00 0.00 58 1010.2
20260502231719 24 252 4.8 4.8 0.00 0.00 0.00 58 1010.1
20260502231217 24 353 9.7 12.9 0.00 0.00 0.00 58 1010.2
20260502230715 24 279 6.4 11.3 0.00 0.00 0.00 60 1010.4
20260502230213 24 335 4.8 4.8 0.00 0.00 0.00 58 1010.4
20260502225708 24 299 6.4 9.7 0.00 0.00 0.00 57 1010.6
20260502225206 23 358 4.8 9.7 0.00 0.00 0.00 59 1010.8
20260502224702 24 341 4.8 9.7 0.00 0.00 0.00 59 1010.8